Weather in Washington

United States     39°21′30″N   120°47′59″W
temp.,
°C
wind,
m/s
gust,
m/s
humid.,
%
clouds,
%
prec.,
mm/h
press.,
hPa
HPBL,
m
16 may, sun
sun1623:00+10ene2374100 0.1 101163
02:00+10ene2483100 0.4 1011113
05:00+9ne228385 0.4 101129
08:00+14nnw136298 0.0 1011600
11:00+19wsw154182 0.1 10101757
14:00+18w235748 0.6 1011674
17:00+17w236795 2.1 1011526
20:00+12ene119110 1.1 101311
17 may, mon
mon1723:00+10ene32944 1.3 101436
02:00+9ene33922 0.0 101440
05:00+9ene32890 0.0 101434
08:00+16se11620 0.0 1013228
11:00+20wsw32440 0.0 10131094
14:00+22wsw44360 0.0 10131417
17:00+21sw33350 0.0 10121234
20:00+12ssw11650 0.0 101410
18 may, tue
tue1823:00+10ene33700 0.0 101646
02:00+10ene32604 0.0 101536
05:00+10ene22605 0.0 101628
08:00+16ssw11430 0.0 1015373
11:00+20sw45330 0.0 10141306
14:00+21sw46310 0.0 10131543
17:00+19sw46320 0.0 10131559
20:00+12sse11520 0.0 101311
19 may, wed
wed1923:00+8e32620 0.0 101436
02:00+7e22600 0.0 101226
05:00+5ese22650 0.0 101324
08:00+10ssw25365 0.0 1012525
11:00+14sw57230 0.0 10111191
14:00+15sw57280 0.0 10101514
17:00+14sw47310 0.0 10091678
20:00+7sse11470 0.0 101012
20 may, thu
thu2023:00+3e22610 0.0 101330
02:00+1ese21720 0.0 101214
05:00−2se11960 0.0 101518
08:00+2s3561100 0.0 1014940
11:00+3sw356594 0.8 10151264
14:00+3wsw348488 0.9 1015770
17:00+4wnw2586100 2.1 1013700
20:00+3nnw1286100 1.2 101457